Location: Les Thiberg�res
(47.8554°N, 1.0978°W)
Time: 15:31:32
(UTC+00:00)

Cosmos 1743 Rocket - Pass Details

Date: 17 February 2020
Orbit: 604 x 633 km, 82.6° (Epoch: 27 March)

Event Time Altitude Azimuth Distance (km) Brightness Sun altitude
Rises 05:06:18 0° 350° (N) 2,875 6.9 -21.1°
Reaches altitude 10° 05:08:32 10° 351° (N) 1,965 6.1 -20.7°
Maximum altitude 05:12:53 87° 77° (ENE) 613 3.4 -20.0°
Drops below altitude 10° 05:17:12 10° 171° (S) 1,949 6.2 -19.2°
Sets 05:19:24 0° 172° (S) 2,850 7.0 -18.9°
